INMARSAT 4-F3

Last updated on Wed Sep 09 2026 00:02:58 GMT+0000 (Coordinated Universal Time)

1 33278U 08039A 26251.47475012 -.00000158 00000+0 00000+0 0 9992 2 33278 4.3727 31.7364 0002791 160.2632 228.4825 1.00271451 47385
UTC large
Height (km)
Speed (km/s)
/
Latitude / Longitude
Inclination (degrees)
Orbital Period (minutes)
Azimuth
Elevation
Range (km)
Doppler Factor

Next 0 passes for location: London (51.5072 / 0.1276)

No passes found over London.
INMARSAT 4-F3